HUANJING 1A (HJ-1A)

Last updated on Wed Sep 09 2026 00:02:45 GMT+0000 (Coordinated Universal Time)

1 33320U 08041A 26251.63654580 .00000501 00000+0 66031-4 0 9992 2 33320 97.6770 234.2936 0017647 221.6261 138.3611 14.84149001970789
UTC large
Height (km)
Speed (km/s)
/
Latitude / Longitude
Inclination (degrees)
Orbital Period (minutes)
Azimuth
Elevation
Range (km)
Doppler Factor

Next 0 passes for location: London (51.5072 / 0.1276)

No passes found over London.
HUANJING 1A (HJ-1A)